Regional Weather Roundup
Issued by NWS

Home | Current Version | Previous Version | Graphics & Text | Print | Product List | Glossary On
Versions: 1 2 3 4 5 6 7 8 9 10 11 12 13 14 15 16 17 18 19 20 21 22 23 24 25 26 27 28 29 30 31 32 33 34 35 36 37 38 39 40 41 42 43 44 45 46 47 48 49 50
489
ASUS45 KCYS 270210
RWRWY

WYOMING REGIONAL WEATHER ROUNDUP
NATIONAL WEATHER SERVICE CHEYENNE WY
800 PM MDT WED JUL 26 2017

NOTE:  "FAIR" INDICATES FEW OR NO CLOUDS BELOW 12,000 FEET
WITH NO SIGNIFICANT WEATHER AND/OR OBSTRUCTIONS TO VISIBILITY.

WYZ001-270300-
YELLOWSTONE NATIONAL PARK

CITY           SKY/WX    TMP DP  RH WIND       PRES   REMARKS
LK YELLOWSTONE   N/A     62  50  64 VRB3      30.39R
W YELLOWSTONE  NOT AVBL

$$
WYZ002>013-054>058-071-098>099-270300-
NORTHERN WYOMING

CITY           SKY/WX    TMP DP  RH WIND       PRES   REMARKS
JACKSON        CLEAR     70  55  60 CALM      30.26S
CODY           FAIR      76  50  40 SW6       30.15S
GREYBULL       FAIR      86  46  24 W12       30.04S
WORLAND        FAIR      80  54  40 SE14      30.07S
SHERIDAN       FAIR      79  54  41 SE6       30.07F
BUFFALO        LGT RAIN  67  58  72 SW18      30.19R
GILLETTE       FAIR      77  51  40 S16       30.16R
HULETT         FAIR      75  55  50 SE7       30.17S
NEWCASTLE      FAIR      77  45  31 S10       30.19R

$$
WYZ014>020-022>026-101>103-270300-
CENTRAL WYOMING

CITY           SKY/WX    TMP DP  RH WIND       PRES   REMARKS
BIG PINEY      FAIR      70  53  54 S6        30.30S
PINEDALE       FAIR      72  43  35 N5        30.31S
DUBOIS         FAIR      68  45  42 SE6       30.29S
LANDER         FAIR      73  52  47 S9        30.19F
RIVERTON       MOCLDY    76  55  48 E5        30.18S
CASPER         FAIR      73  57  57 E10       30.20R
DOUGLAS        FAIR      70  54  56 SE9       30.23R

$$
WYZ021-027>030-104>119-270300-
SOUTHERN WYOMING

CITY           SKY/WX    TMP DP  RH WIND       PRES   REMARKS
EVANSTON       FAIR      75  49  39 W7        30.31R
KEMMERER         N/A     73  46  38 NW10      30.32S
FORT BRIDGER   CLOUDY    73  54  51 CALM      30.33S
ROCK SPRINGS   FAIR      68  54  60 SE6       30.28F
RAWLINS        MOCLDY    68  54  60 NW9       30.30S
LARAMIE        LGT RAIN  59  57  93 SE9       30.37S
CHEYENNE       CLOUDY    69  56  62 E8        30.31R
TORRINGTON     FAIR      74  54  49 SE6       30.17F
PINE BLUFFS    FAIR      72  54  53 E9        30.24S

$$




USA.gov is the U.S. government's official web portal to all federal, state and local government web resources and services.